Weather History for Salisbury, MD

Change the Weather History Date:

Tuesday, April 15, 2014

  Actual Average Record
Temperature  
Mean Temperature 53 °F 54 °F  
Max Temperature 70 °F 65 °F 87 °F (1941)
Min Temperature 36 °F 43 °F 26 °F (1943)
Degree Days  
Heating Degree Days 12 12  
Month to date heating degree days 122 203  
Since 1 July heating degree days 3951 4138  
Cooling Degree Days 0 1  
Month to date cooling degree days 14 2  
Year to date cooling degree days 14 4  
Growing Degree Days 3 (Base 50)    
Moisture  
Dew Point 55 °F    
Average Humidity 85    
Maximum Humidity 89    
Minimum Humidity 81    
Precipitation  
Precipitation 1.70 in 0.12 in 2.42 in (2007)
Month to date precipitation 1.92 1.94  
Year to date precipitation 8.47 13.32  
Snow  
Snow 0.00 in 0.00 in T in (1943)
Month to date snowfall 0.0 0.1  
Since 1 July snowfall 22.5 9.2  
Snow Depth 0.00 in    
Sea Level Pressure  
Sea Level Pressure 29.75 in    
Wind  
Wind Speed 16 mph (SW)    
Max Wind Speed 31 mph    
Max Gust Speed 45 mph    
Visibility 7 miles    
Events Rain , Thunderstorm    
T = Trace of Precipitation, MM = Missing Value Source: NWS Daily Summary

Daily Weather History Graph

Daily Weather History Graph

Search for Another Location

Airport:

Trip Planner

Search our weather history database for the weather conditions in past years. The results will help you decide how hot, cold, wet, or windy it might be!

Date:

Astronomy

Apr. 15, 2014 Rise Set
Actual Time 6:26 AM EDT 7:38 PM EDT
Civil Twilight 5:58 AM EDT 8:05 PM EDT
Nautical Twilight 5:26 AM EDT 8:38 PM EDT
Astronomical Twilight 4:52 AM EDT 9:12 PM EDT
Moon 8:16 PM EDT (4/15) 6:32 AM EDT (4/15)
Length of Visible Light 14h 06m
Length of Day
13h 12m
Full, 100% of the Moon is Illuminated
Apr 15
Full
Apr 22
Last Quarter
Apr 29
New
May 6
First Quarter
May 14
Full

Hourly Weather History & Observations

Time (EDT) Temp. Windchill Dew Point Humidity Pressure Visibility Wind Dir Wind Speed Gust Speed Precip Events Conditions
12:54 AM 64.9 °F - 59.0 °F 81% 29.87 in 10.0 mi South 12.7 mph 23.0 mph N/A   Mostly Cloudy
1:44 AM 64.4 °F - 60.8 °F 88% 29.86 in 8.0 mi South 12.7 mph 21.9 mph 0.00 in Rain Light Rain
1:54 AM 64.9 °F - 61.0 °F 87% 29.87 in 10.0 mi South 9.2 mph - 0.00 in Rain Light Rain
2:54 AM 66.0 °F - 62.1 °F 87% 29.84 in 10.0 mi South 10.4 mph - 0.00 in   Overcast
3:54 AM 66.9 °F - 63.0 °F 87% 29.81 in 10.0 mi South 15.0 mph 23.0 mph 0.00 in   Overcast
4:54 AM 66.9 °F - 62.1 °F 84% 29.79 in 10.0 mi South 20.7 mph 27.6 mph N/A   Overcast
5:54 AM 66.0 °F - 62.1 °F 87% 29.77 in 10.0 mi South 15.0 mph 23.0 mph N/A   Overcast
6:54 AM 66.9 °F - 63.0 °F 87% 29.77 in 10.0 mi South 16.1 mph 24.2 mph N/A   Overcast
7:54 AM 66.9 °F - 63.0 °F 87% 29.75 in 10.0 mi South 15.0 mph 24.2 mph N/A   Overcast
8:54 AM 68.0 °F - 63.0 °F 84% 29.73 in 10.0 mi South 17.3 mph 26.5 mph N/A   Overcast
9:54 AM 68.0 °F - 63.0 °F 84% 29.70 in 10.0 mi South 16.1 mph 25.3 mph N/A   Overcast
10:12 AM 68.0 °F - 62.6 °F 83% 29.69 in 10.0 mi South 18.4 mph 25.3 mph 0.00 in Rain Light Rain
10:38 AM 68.0 °F - 64.4 °F 88% 29.69 in 10.0 mi South 17.3 mph 25.3 mph 0.00 in Rain Light Rain
10:54 AM 69.1 °F - 64.9 °F 87% 29.70 in 10.0 mi South 17.3 mph 26.5 mph 0.00 in Rain Light Rain
11:11 AM 68.0 °F - 64.4 °F 88% 29.69 in 1.8 mi South 17.3 mph 29.9 mph 0.10 in Rain Heavy Rain
11:24 AM 68.0 °F - 64.4 °F 88% 29.70 in 1.5 mi South 21.9 mph 34.5 mph 0.23 in Rain , Thunderstorm Heavy Thunderstorms and Rain
11:33 AM 68.0 °F - 62.6 °F 83% 29.69 in 3.0 mi South 19.6 mph 31.1 mph 0.25 in Rain Rain
11:41 AM 68.0 °F - 64.4 °F 88% 29.69 in 6.0 mi South 18.4 mph 24.2 mph 0.25 in Rain Light Rain
11:54 AM 69.1 °F - 64.0 °F 84% 29.69 in 8.0 mi South 18.4 mph 23.0 mph 0.26 in Rain Rain
12:54 PM 68.0 °F - 64.0 °F 87% 29.65 in 10.0 mi South 12.7 mph 23.0 mph 0.01 in Rain Light Rain
1:54 PM 69.1 °F - 63.0 °F 81% 29.65 in 10.0 mi South 15.0 mph 21.9 mph 0.00 in   Overcast
2:54 PM 68.0 °F - 62.1 °F 81% 29.65 in 10.0 mi South 11.5 mph - N/A   Overcast
3:54 PM 68.0 °F - 63.0 °F 84% 29.65 in 6.0 mi South 9.2 mph - 0.01 in Rain Rain
4:54 PM 68.0 °F - 64.0 °F 87% 29.62 in 7.0 mi SSE 11.5 mph - 0.00 in Rain Light Rain
5:35 PM 66.2 °F - 64.4 °F 94% 29.61 in 10.0 mi SSE 5.8 mph - 0.00 in   Overcast
5:49 PM 57.2 °F - 53.6 °F 88% 29.62 in 10.0 mi NNW 23.0 mph 33.4 mph 0.00 in Rain Light Rain
5:54 PM 57.0 °F - 53.1 °F 87% 29.63 in 10.0 mi NNW 15.0 mph 33.4 mph 0.00 in Rain Light Rain
6:01 PM 57.2 °F - 53.6 °F 88% 29.64 in 8.0 mi NNW 15.0 mph - 0.00 in Rain Light Rain
6:22 PM 55.4 °F - 51.8 °F 88% 29.66 in 2.5 mi NW 19.6 mph 27.6 mph 0.07 in Rain Heavy Rain
6:30 PM 53.6 °F - 51.8 °F 94% 29.66 in 1.0 mi NNW 18.4 mph 27.6 mph 0.23 in Rain Heavy Rain
6:54 PM 50.0 °F - 46.9 °F 89% 29.73 in 1.2 mi North 17.3 mph 26.5 mph 0.45 in Rain Heavy Rain
7:03 PM 48.2 °F - 44.6 °F 87% 29.72 in 2.0 mi North 18.4 mph 32.2 mph 0.05 in Rain Heavy Rain
7:13 PM 48.2 °F - 44.6 °F 87% 29.73 in 2.5 mi NNW 31.1 mph 44.9 mph 0.13 in Rain Heavy Rain
7:26 PM 46.4 °F 39.2 °F 42.8 °F 87% 29.76 in 3.0 mi NNW 18.4 mph 31.1 mph 0.21 in Rain Heavy Rain
7:54 PM 46.0 °F 39.0 °F 41.0 °F 83% 29.80 in 4.0 mi NW 17.3 mph 31.1 mph 0.35 in Rain Heavy Rain
8:54 PM 45.0 °F 36.6 °F 41.0 °F 86% 29.84 in 8.0 mi NNW 21.9 mph 35.7 mph 0.14 in Rain Rain
9:33 PM 44.6 °F 36.9 °F 39.2 °F 81% 29.84 in 7.0 mi NNW 18.4 mph 27.6 mph 0.04 in Rain Rain
9:54 PM 43.0 °F 34.5 °F 39.0 °F 86% 29.88 in 4.0 mi NNW 19.6 mph 24.2 mph 0.09 in Rain Heavy Rain
10:47 PM 42.8 °F 34.8 °F 37.4 °F 81% 29.91 in 6.0 mi NNW 17.3 mph 25.3 mph 0.13 in Rain Rain
10:54 PM 43.0 °F 35.1 °F 37.9 °F 82% 29.91 in 6.0 mi NNW 17.3 mph 28.8 mph 0.14 in Rain Rain
11:06 PM 42.8 °F 33.8 °F 37.4 °F 81% 29.94 in 6.0 mi NW 21.9 mph 29.9 mph 0.02 in Rain Rain
11:52 PM 37.4 °F 26.6 °F 33.8 °F 87% 29.95 in 6.0 mi NNW 21.9 mph 29.9 mph 0.10 in Rain Heavy Rain
11:54 PM 37.9 °F 27.3 °F 34.0 °F 86% 29.97 in 5.0 mi NNW 21.9 mph 28.8 mph 0.10 in Rain Heavy Rain